Wink, TX

6:24 AM CST on January 17, 2018 (GMT -0600)
Winkler County

Weather History for KINK - February, 2012

Change the Weather History Date:

Thursday, February 16, 2012

  Actual Average Record
Temperature  
Mean Temperature 44 °F -  
Max Temperature 53 °F 65 °F 87 °F (2011)
Min Temperature 34 °F 30 °F 19 °F (1990)
Degree Days  
Heating Degree Days 22    
Moisture  
Dew Point 33 °F    
Average Humidity 65    
Maximum Humidity 85    
Minimum Humidity 45    
Precipitation  
Precipitation 0.00 in - - ()
Sea Level Pressure  
Sea Level Pressure 30.10 in    
Wind  
Wind Speed 7 mph (ENE)    
Max Wind Speed 13 mph    
Max Gust Speed 22 mph    
Visibility 10 miles    
Events      
Averages and records for this station are not official NWS values.
T = Trace of Precipitation, MM = Missing Value Source: NWS Daily Summary

Daily Weather History Graph

Daily Weather History Graph

Search for Another Location

Airport or City:

Trip Planner

Search our weather history database for the weather conditions in past years. The results will help you decide how hot, cold, wet, or windy it might be!

Date:

Astronomy

Feb. 16, 2012 Rise Set
Actual Time 7:34 AM CST 6:40 PM CST
Civil Twilight 7:09 AM CST 7:04 PM CST
Nautical Twilight 6:40 AM CST 7:33 PM CST
Astronomical Twilight 6:12 AM CST 8:01 PM CST
Moon 3:20 AM CST (2/16) 1:45 PM CST (2/16)
Length of Visible Light 11h 55m
Length of Day
11h 05m
Waning Crescent, 28% of the Moon is Illuminated
Feb 16
Waning Crescent
Feb 21
New
Feb 29
First Quarter
Mar 8
Full
Mar 14
Last Quarter

Hourly Weather History & Observations

Time (CST) Temp. Windchill Dew Point Humidity Pressure Visibility Wind Dir Wind Speed Gust Speed Precip Events Conditions
12:53 AM 39.9 °F 35.8 °F 19.9 °F 45% 30.02 in 10.0 mi North 5.8 mph - N/A   Clear
1:53 AM 39.0 °F 35.7 °F 21.9 °F 50% 30.05 in 10.0 mi East 4.6 mph - N/A   Clear
2:53 AM 37.0 °F 34.5 °F 24.1 °F 59% 30.06 in 10.0 mi NE 3.5 mph - N/A   Clear
3:53 AM 39.0 °F 34.0 °F 28.9 °F 67% 30.08 in 10.0 mi East 6.9 mph - N/A   Clear
4:53 AM 39.0 °F 34.8 °F 30.9 °F 73% 30.09 in 10.0 mi NE 5.8 mph - N/A   Clear
5:53 AM 39.0 °F 34.0 °F 32.0 °F 76% 30.10 in 10.0 mi ENE 6.9 mph - N/A   Clear
6:53 AM 36.0 °F 31.1 °F 30.9 °F 82% 30.12 in 10.0 mi NNE 5.8 mph - N/A   Partly Cloudy
7:53 AM 34.0 °F 28.0 °F 30.0 °F 85% 30.17 in 9.0 mi NW 6.9 mph - N/A   Clear
8:53 AM 39.9 °F - 33.1 °F 77% 30.18 in 10.0 mi Calm Calm - N/A   Clear
9:53 AM 43.0 °F 38.8 °F 33.1 °F 68% 30.19 in 10.0 mi ENE 6.9 mph - N/A   Mostly Cloudy
10:53 AM 45.0 °F 41.8 °F 34.0 °F 65% 30.19 in 10.0 mi East 5.8 mph - N/A   Overcast
11:53 AM 46.9 °F - 33.1 °F 59% 30.18 in 10.0 mi East 9.2 mph - N/A   Overcast
12:53 PM 48.9 °F - 34.0 °F 56% 30.14 in 10.0 mi ENE 9.2 mph - N/A   Overcast
1:53 PM 52.0 °F - 34.0 °F 50% 30.10 in 10.0 mi ENE 10.4 mph - N/A   Overcast
2:53 PM 53.6 °F - 35.6 °F 51% 30.09 in 10.0 mi ENE 12.7 mph - N/A   Mostly Cloudy
3:53 PM 53.1 °F - 35.1 °F 50% 30.05 in 10.0 mi East 12.7 mph 20.7 mph N/A   Clear
4:53 PM 51.1 °F - 35.1 °F 54% 30.04 in 10.0 mi East 11.5 mph 21.9 mph N/A   Clear
5:53 PM 50.0 °F - 35.1 °F 57% 30.05 in 10.0 mi East 11.5 mph - N/A   Clear
6:53 PM 48.0 °F - 36.0 °F 63% 30.06 in 10.0 mi East 8.1 mph - N/A   Clear
7:53 PM 46.9 °F - 36.0 °F 66% 30.09 in 10.0 mi ENE 8.1 mph - N/A   Mostly Cloudy
8:53 PM 46.0 °F 42.5 °F 37.0 °F 71% 30.08 in 10.0 mi NE 6.9 mph - N/A   Mostly Cloudy
9:53 PM 45.0 °F 41.2 °F 37.9 °F 76% 30.09 in 10.0 mi ENE 6.9 mph - N/A   Scattered Clouds
10:53 PM 45.0 °F 41.8 °F 37.9 °F 76% 30.09 in 10.0 mi East 5.8 mph - N/A   Overcast
11:53 PM 44.1 °F 38.1 °F 37.0 °F 76% 30.06 in 10.0 mi ENE 11.5 mph - N/A   Overcast